Weather History for KLHZ - January, 2013

Change the Weather History Date:

Thursday, January 10, 2013

  Actual Average (KRDU) Record (KRDU)
Temperature  
Mean Temperature 51 °F 40 °F  
Max Temperature 60 °F 50 °F 75 °F (1930)
Min Temperature 42 °F 31 °F 3 °F (1970)
Degree Days  
Heating Degree Days 14 25  
Month to date heating degree days 245  
Since 1 July heating degree days 1496  
Cooling Degree Days 0 0  
Month to date cooling degree days 0  
Year to date cooling degree days 0  
Growing Degree Days 1 (Base 50)    
Moisture  
Dew Point 38 °F    
Average Humidity 60    
Maximum Humidity 100    
Minimum Humidity 45    
Precipitation  
Precipitation 0.00 in 0.12 in 3.01 in (1984)
Month to date precipitation 1.10  
Year to date precipitation 1.10  
Snow  
Snow 0.00 in 0.10 in 6.00 in (1927)
Month to date snowfall 0.7  
Since 1 July snowfall 1.4  
Snow Depth -    
Sea Level Pressure  
Sea Level Pressure 30.48 in    
Wind  
Wind Speed 2 mph (ENE)    
Max Wind Speed 9 mph    
Max Gust Speed -    
Visibility 10 miles    
Events      
T = Trace of Precipitation, MM = Missing Value Source: NWS Daily Summary

Daily Weather History Graph

Daily Weather History Graph

Search for Another Location

Airport or City:

Trip Planner

Search our weather history database for the weather conditions in past years. The results will help you decide how hot, cold, wet, or windy it might be!

Date:

Astronomy

Jan. 10, 2013 Rise Set
Actual Time 7:24 AM EST 5:18 PM EST
Civil Twilight 6:56 AM EST 5:46 PM EST
Nautical Twilight 6:24 AM EST 6:17 PM EST
Astronomical Twilight 5:53 AM EST 6:48 PM EST
Moon 6:02 AM EST (1/10) 4:23 PM EST (1/10)
Length of Visible Light 10h 50m
Length of Day
9h 53m
Waning Crescent, 2% of the Moon is Illuminated
Jan 10
Waning Crescent
Jan 11
New
Jan 18
First Quarter
Jan 26
Full
Feb 3
Last Quarter

Hourly Weather History & Observations

Time (EST) Temp. Windchill Dew Point Humidity Pressure Visibility Wind Dir Wind Speed Gust Speed Precip Events Conditions
12:15 AM - - - N/A% 30.41 in 10.0 mi Calm Calm - N/A   Clear
12:35 AM - - - N/A% 30.41 in 10.0 mi Calm Calm - N/A   Clear
12:55 AM - - - N/A% 30.42 in 10.0 mi Calm Calm - N/A   Clear
1:15 AM - - - N/A% 30.42 in 10.0 mi Calm Calm - N/A   Clear
1:35 AM 53.6 °F - 53.6 °F 100% 30.42 in 10.0 mi Calm Calm - N/A   Clear
1:55 AM 55.4 °F - 55.4 °F 100% 30.43 in 10.0 mi West 3.5 mph - N/A   Clear
3:15 AM - - - N/A% 30.44 in 10.0 mi Calm Calm - N/A   Clear
3:35 AM - - - N/A% 30.44 in 10.0 mi Calm Calm - N/A   Clear
3:55 AM - - - N/A% 30.43 in 10.0 mi Calm Calm - N/A   Clear
4:15 AM - - - N/A% 30.43 in 10.0 mi Calm Calm - N/A   Clear
4:35 AM - - - N/A% 30.42 in 10.0 mi Calm Calm - N/A   Clear
4:55 AM - - - N/A% 30.42 in 10.0 mi Calm Calm - N/A   Clear
5:15 AM - - - N/A% 30.43 in 10.0 mi Calm Calm - N/A   Clear
5:35 AM - - - N/A% 30.45 in 10.0 mi Calm Calm - N/A   Clear
5:55 AM - - - N/A% 30.46 in 10.0 mi Calm Calm - N/A   Clear
6:15 AM - - - N/A% 30.46 in 10.0 mi North 3.5 mph - N/A   Clear
6:35 AM - - - N/A% 30.47 in 10.0 mi North 3.5 mph - N/A   Clear
6:55 AM - - - N/A% 30.48 in 10.0 mi Calm Calm - N/A   Clear
7:35 AM - - - N/A% 30.50 in 10.0 mi Calm Calm - N/A   Clear
7:55 AM - - - N/A% 30.51 in 10.0 mi Calm Calm - N/A   Clear
8:15 AM - - - N/A% 30.52 in 10.0 mi Calm Calm - N/A   Clear
8:35 AM 46.4 °F - 46.4 °F 100% 30.53 in 10.0 mi Calm Calm - N/A   Clear
8:55 AM 48.2 °F - 48.2 °F 100% 30.53 in 10.0 mi Calm Calm - N/A   Clear
9:35 AM 53.6 °F - 44.6 °F 72% 30.54 in 10.0 mi NE 4.6 mph - N/A   Clear
9:55 AM 55.4 °F - 44.6 °F 67% 30.54 in 10.0 mi ENE 5.8 mph - N/A   Clear
10:15 AM 57.2 °F - 44.6 °F 63% 30.54 in 10.0 mi ENE 9.2 mph - N/A   Clear
10:35 AM 59.0 °F - 44.6 °F 59% 30.54 in 10.0 mi ENE 5.8 mph - N/A   Clear
10:55 AM 59.0 °F - 42.8 °F 55% 30.54 in 10.0 mi ESE 5.8 mph - N/A   Clear
11:15 AM 59.0 °F - 42.8 °F 55% 30.53 in 10.0 mi East 8.1 mph - N/A   Clear
11:35 AM 59.0 °F - 41.0 °F 51% 30.52 in 10.0 mi ENE 6.9 mph - N/A   Clear
11:55 AM 59.0 °F - 41.0 °F 51% 30.50 in 10.0 mi ENE 6.9 mph - N/A   Clear
12:15 PM 59.0 °F - 41.0 °F 51% 30.49 in 10.0 mi ENE 4.6 mph - N/A   Clear
12:35 PM 59.0 °F - 41.0 °F 51% 30.49 in 10.0 mi ENE 3.5 mph - N/A   Clear
12:55 PM 59.0 °F - 41.0 °F 51% 30.48 in 10.0 mi NE 4.6 mph - N/A   Clear
1:15 PM 60.8 °F - 41.0 °F 48% 30.47 in 10.0 mi ENE 3.5 mph - N/A   Clear
1:35 PM 60.8 °F - 41.0 °F 48% 30.47 in 10.0 mi NE 6.9 mph - N/A   Clear
1:55 PM 60.8 °F - 39.2 °F 45% 30.47 in 10.0 mi ENE 4.6 mph - N/A   Clear
2:35 PM 60.8 °F - 41.0 °F 48% 30.48 in 10.0 mi Calm Calm - N/A   Clear
2:55 PM 60.8 °F - 39.2 °F 45% 30.47 in 10.0 mi East 4.6 mph - N/A   Clear
3:15 PM 60.8 °F - 39.2 °F 45% 30.48 in 10.0 mi ENE 4.6 mph - N/A   Clear
3:35 PM 59.0 °F - 37.4 °F 45% 30.48 in 10.0 mi ENE 4.6 mph - N/A   Clear
3:55 PM 59.0 °F - 37.4 °F 45% 30.48 in 10.0 mi East 4.6 mph - N/A   Clear
4:15 PM 57.2 °F - 37.4 °F 48% 30.48 in 10.0 mi ENE 4.6 mph - N/A   Clear
4:35 PM 55.4 °F - 35.6 °F 47% 30.48 in 10.0 mi ENE 3.5 mph - N/A   Clear
4:55 PM 53.6 °F - 33.8 °F 47% 30.48 in 10.0 mi ENE 4.6 mph - N/A   Clear
5:15 PM 53.6 °F - 33.8 °F 47% 30.47 in 10.0 mi East 3.5 mph - N/A   Clear
5:35 PM 51.8 °F - 33.8 °F 50% 30.47 in 10.0 mi ENE 3.5 mph - N/A   Clear
5:55 PM 51.8 °F - 33.8 °F 50% 30.48 in 10.0 mi Calm Calm - N/A   Clear
6:15 PM 46.4 °F - 35.6 °F 66% 30.49 in 10.0 mi Calm Calm - N/A   Clear
6:35 PM 46.4 °F - 35.6 °F 66% 30.49 in 10.0 mi Calm Calm - N/A   Clear
6:55 PM 46.4 °F - 35.6 °F 66% 30.49 in 10.0 mi Calm Calm - N/A   Clear
7:15 PM 44.6 °F - 33.8 °F 66% 30.49 in 10.0 mi Calm Calm - N/A   Clear
7:35 PM 48.2 °F - 33.8 °F 58% 30.48 in 10.0 mi ENE 4.6 mph - N/A   Clear
7:55 PM 51.8 °F - 32.0 °F 47% 30.48 in 10.0 mi ENE 3.5 mph - N/A   Clear
8:15 PM 46.4 °F - 32.0 °F 57% 30.48 in 10.0 mi Calm Calm - N/A   Clear
8:35 PM 46.4 °F - 32.0 °F 57% 30.48 in 10.0 mi Calm Calm - N/A   Clear
8:55 PM 46.4 °F - 32.0 °F 57% 30.48 in 10.0 mi Calm Calm - N/A   Clear
9:15 PM 46.4 °F - 32.0 °F 57% 30.48 in 10.0 mi Calm Calm - N/A   Clear
9:35 PM 46.4 °F - 32.0 °F 57% 30.48 in 10.0 mi Calm Calm - N/A   Clear
9:55 PM 44.6 °F - 32.0 °F 61% 30.48 in 10.0 mi Calm Calm - N/A   Clear
10:15 PM 44.6 °F 43.1 °F 33.8 °F 66% 30.48 in 10.0 mi East 3.5 mph - N/A   Clear
10:35 PM 44.6 °F 42.2 °F 33.8 °F 66% 30.47 in 10.0 mi East 4.6 mph - N/A   Clear
10:55 PM 42.8 °F 41.1 °F 33.8 °F 70% 30.47 in 10.0 mi East 3.5 mph - N/A   Clear
11:15 PM 44.6 °F - 33.8 °F 66% 30.47 in 10.0 mi Calm Calm - N/A   Clear
11:35 PM 42.8 °F 41.1 °F 32.0 °F 66% 30.47 in 10.0 mi ESE 3.5 mph - N/A   Clear
11:55 PM 42.8 °F - 32.0 °F 66% 30.47 in 10.0 mi Calm Calm - N/A   Mostly Cloudy